Stations météo

réclame
Mon MeteoGroup
Pajala A, Suède (2095): Température de l'air & dewpoint: 28.06.2020 08:00:00 - 04.07.2020 08:00:00 (CEST)Pajala A, Suède (2095): Vitesse du vent & gusts: 28.06.2020 08:00:00 - 04.07.2020 08:00:00 (CEST)Pajala A, Suède (2095): Direction du vent: 28.06.2020 08:00:00 - 04.07.2020 08:00:00 (CEST)Pajala A, Suède (2095): reduced air pressure: 28.06.2020 08:00:00 - 04.07.2020 08:00:00 (CEST)Pajala A, Suède (2095): visibility: 28.06.2020 08:00:00 - 04.07.2020 08:00:00 (CEST)Pajala A, Suède (2095): Quantités de précipitations: 28.06.2020 08:00:00 - 04.07.2020 08:00:00 (CEST)
Date & Time tt [°C] td [°C] ff [km/h] ff [knt] fx [km/h] fx [knt] dd ppp [hPa] vv [km] rr [mm]
04.07.2020 08:00:00 9,3 7,8 9 5 19 11 WSW 999,2 50 0,0
04.07.2020 07:00:00 8,7 8,1 9 5 19 10 WSW 998,9 50 0,0
04.07.2020 06:00:00 8,4 8,1 6 4 13 7 S 998,6 7 0,0
04.07.2020 05:00:00 8,1 7,8 6 3 11 6 SE 998,6 4,7 0,0
04.07.2020 04:00:00 8,0 7,6 5 3 13 7 ESE 998,4 50 0,0
04.07.2020 03:00:00 7,7 7,3 7 4 15 8 SSE 998,4 31 0,0
04.07.2020 02:00:00 7,9 7,5 8 4 16 9 SE 998,7 45 0,0
04.07.2020 01:00:00 8,4 8,0 8 4 16 9 SE 998,8 35 0,0
04.07.2020 00:00:00 8,9 8,3 9 5 16 9 SE 998,8 46 0,0
03.07.2020 23:00:00 9,0 8,4 5 3 14 7 SSE 999,0 41 0,0
03.07.2020 22:00:00 9,2 8,9 6 3 19 10 ENE 999,0 29 2,3
03.07.2020 21:00:00 8,9 8,6 12 6 22 12 NNE 999,3 24 1,0
03.07.2020 20:00:00 8,9 8,4 13 7 23 12 NNE 999,6 12 1,0
03.07.2020 19:00:00 9,0 8,2 12 6 27 14 NNE 1000,1 50 0,4
03.07.2020 18:00:00 8,9 8,1 16 9 26 14 NNE 1000,7 20 1,2
03.07.2020 17:00:00 9,5 8,3 13 7 25 13 NE 1001,3 9 0,2
03.07.2020 16:00:00 10,1 7,3 12 6 24 13 NE 1001,7 50 0,8
03.07.2020 15:00:00 9,7 5,9 14 8 34 18 E 1002,1 14 0,1
03.07.2020 14:00:00 12,5 6,3 8 4 25 14 E 1001,5 19 0,0
03.07.2020 13:00:00 13,4 4,8 14 7 22 12 NE 1001,4 45 0,0
03.07.2020 12:00:00 14,6 2,5 9 5 23 13 ENE 1001,8 48 0,0
03.07.2020 11:00:00 13,9 3,9 7 4 14 7 NE 1002,4 50 0,0
03.07.2020 10:00:00 13,2 3,8 4 2 16 9 E 1002,9 36 0,0
03.07.2020 09:00:00 12,5 4,0 6 3 12 7 NE 1003,0 41 0,0
03.07.2020 08:00:00 11,1 4,5 5 3 11 6 NNE 1003,3 46 0,0
03.07.2020 07:00:00 10,1 4,7 4 2 7 4 NNE 1003,5 47 0,0
03.07.2020 06:00:00 8,3 6,0 0 0 3 1 N 1003,9 50 0,0
03.07.2020 05:00:00 6,5 5,3 0 0 3 1 N 1004,0 50 0,0
03.07.2020 04:00:00 1,5 0,6 0 0 5 3 N 1004,3 40 0,0
03.07.2020 03:00:00 -0,4 -1,1 0 0 4 2 N 1004,4 43 0,0
03.07.2020 02:00:00 -0,8 -1,3 4 2 5 3 WSW 1004,3 41 0,0
03.07.2020 01:00:00 0,5 0,0 2 1 3 2 SSW 1003,9 44 0,0
03.07.2020 00:00:00 2,5 1,9 0 0 3 1 N 1003,5 49 0,0
02.07.2020 23:00:00 5,0 3,8 0 0 6 4 N 1002,7 49 0,0
02.07.2020 22:00:00 7,1 4,9 3 2 4 2 W 1002,1 50 0,0
02.07.2020 21:00:00 10,2 4,6 3 2 7 4 SW 1001,4 50 0,0
02.07.2020 20:00:00 12,6 4,6 4 2 7 4 SW 1000,8 50 0,0
02.07.2020 19:00:00 13,7 1,7 4 2 14 8 W 1000,3 46 0,0
02.07.2020 18:00:00 14,0 2,2 8 5 25 14 NW 999,7 49 0,0
02.07.2020 17:00:00 15,2 -0,2 10 6 21 11 W 999,1 50 0,0
02.07.2020 16:00:00 14,5 0,5 10 5 25 13 WSW 998,5 50 0,0
02.07.2020 15:00:00 14,4 1,0 10 6 22 12 SW 998,1 38 0,0
02.07.2020 14:00:00 12,7 3,1 9 5 24 13 W 997,8 37 0,0
02.07.2020 13:00:00 13,9 3,4 19 10 30 16 W 997,1 46 0,0
02.07.2020 12:00:00 12,7 3,4 8 4 26 14 WSW 996,5 40 0,0
02.07.2020 11:00:00 12,8 5,0 6 4 18 10 WSW 995,8 50 0,0
02.07.2020 10:00:00 11,8 3,8 9 5 16 9 SW 995,4 45 0,0
02.07.2020 09:00:00 11,4 4,1 9 5 18 10 SW 994,6 48 0,0
02.07.2020 08:00:00 10,8 4,9 4 2 14 7 W 994,1 50 0,0
02.07.2020 07:00:00 9,6 4,2 8 4 14 8 W 993,6 50 0,0
02.07.2020 06:00:00 9,0 4,0 9 5 16 9 W 993,2 50 0,0
02.07.2020 05:00:00 8,4 4,2 5 3 11 6 WSW 992,7 50 0,0
02.07.2020 04:00:00 7,5 3,9 5 3 14 8 WNW 992,4 50 0,0
02.07.2020 03:00:00 5,8 5,7 3 2 6 3 W 992,0 50 0,0
02.07.2020 02:00:00 4,5 4,1 4 2 9 5 W 991,6 49 0,0
02.07.2020 01:00:00 4,3 3,7 3 2 7 4 SW 991,3 44 0,0
02.07.2020 00:00:00 7,1 6,4 4 2 9 5 S 990,8 50 0,0
01.07.2020 23:00:00 8,1 6,4 4 2 9 5 WSW 990,3 50 0,0
01.07.2020 22:00:00 8,9 6,5 5 3 17 9 W 989,6 50 0,0
01.07.2020 21:00:00 10,7 7,4 4 2 17 9 WSW 988,8 50 0,0
01.07.2020 20:00:00 11,1 6,6 10 5 20 11 W 988,4 50 0,0
01.07.2020 19:00:00 11,3 6,6 11 6 22 12 W 988,0 48 0,0
01.07.2020 18:00:00 11,3 7,2 10 5 23 12 W 987,4 50 0,0
01.07.2020 17:00:00 10,6 7,5 11 6 23 13 W 986,8 36 0,0
01.07.2020 16:00:00 10,9 7,0 12 6 27 15 W 986,1 48 0,0
01.07.2020 15:00:00 10,4 7,1 13 7 31 17 W 985,6 43 0,0
01.07.2020 14:00:00 10,0 7,4 14 7 26 14 WNW 985,0 37 0,0
01.07.2020 13:00:00 10,0 7,2 14 7 29 16 WNW 984,3 50 0,0
01.07.2020 12:00:00 9,1 7,5 12 6 24 13 WNW 983,6 20 0,0
01.07.2020 11:00:00 8,6 7,4 13 7 26 14 NW 983,1 22 0,1
01.07.2020 10:00:00 8,2 7,1 9 5 31 17 NW 982,6 13 0,1
01.07.2020 09:00:00 7,9 6,5 14 8 27 15 NW 982,4 50 0,1
01.07.2020 08:00:00 7,8 6,7 16 9 29 15 NW 982,3 17 0,5
01.07.2020 07:00:00 7,5 6,9 14 7 26 14 NW 982,3 13 0,9
01.07.2020 06:00:00 7,7 7,4 13 7 22 12 NW 982,4 12 0,8
01.07.2020 05:00:00 7,9 7,5 11 6 21 11 NW 982,7 18 1,6
01.07.2020 04:00:00 8,5 8,1 11 6 29 15 NNW 983,0 25 3,1
01.07.2020 03:00:00 9,1 8,5 13 7 23 13 NNW 983,3 26 0,0
01.07.2020 02:00:00 9,8 9,2 11 6 21 11 NNW 983,8 34 0,0
01.07.2020 01:00:00 10,1 9,5 11 6 22 12 NNW 984,3 31 0,0
01.07.2020 00:00:00 10,3 9,9 9 5 15 8 NNW 984,7 34 0,0
30.06.2020 23:00:00 10,6 10,1 9 5 16 9 NNW 985,6 39 0,0
30.06.2020 22:00:00 10,6 10,0 9 5 16 9 N 986,3 35 0,0
30.06.2020 21:00:00 10,8 10,2 11 6 17 9 N 986,6 34 0,0
30.06.2020 20:00:00 11,6 11,0 9 5 19 10 N 987,1 18 0,7
30.06.2020 19:00:00 12,0 11,5 7 4 - - N 987,6 10 2,5
30.06.2020 18:00:00 12,2 11,7 10 5 19 10 NNE 988,0 8 3,1
30.06.2020 17:00:00 13,3 11,7 11 6 21 11 NNE 988,3 46 0,0
30.06.2020 16:00:00 13,6 11,4 11 6 18 10 NNE 988,5 29 0,0
30.06.2020 15:00:00 13,5 11,2 9 5 16 9 N 988,8 23 0,0
30.06.2020 14:00:00 13,8 10,4 8 4 18 10 NNE 989,0 29 0,0
30.06.2020 13:00:00 13,5 10,5 11 6 17 9 NNW 989,5 36 0,0
30.06.2020 12:00:00 11,9 9,8 10 5 20 11 NW 989,8 50 0,0
30.06.2020 11:00:00 12,1 10,3 13 7 22 12 NNW 989,9 41 0,0
30.06.2020 10:00:00 12,0 10,1 11 6 32 18 WNW 990,2 45 0,0
30.06.2020 09:00:00 15,2 13,0 14 8 28 15 SSW 989,6 44 0,0
30.06.2020 08:00:00 15,0 13,2 14 8 27 15 SSW 989,9 50 0,0
30.06.2020 07:00:00 14,0 13,4 11 6 24 13 S 990,7 11 0,1
30.06.2020 06:00:00 13,9 13,4 12 7 25 14 S 991,3 20 0,0
30.06.2020 05:00:00 13,8 13,5 12 7 29 16 S 992,0 3,9 0,0
30.06.2020 04:00:00 13,8 13,3 14 8 31 17 S 992,8 7 0,2
30.06.2020 03:00:00 13,8 13,3 11 6 33 18 S 993,7 11 1,4
30.06.2020 02:00:00 14,1 13,3 16 9 26 14 S 994,9 11 1,4
30.06.2020 01:00:00 14,9 14,3 12 6 26 14 S 996,1 8 1,1
30.06.2020 00:00:00 13,9 13,4 3 2 11 6 E 997,4 18 0,0
29.06.2020 23:00:00 14,2 13,1 6 3 10 5 NNE 998,6 50 1,8
29.06.2020 22:00:00 16,5 11,6 8 5 20 11 NNE 998,9 19 0,0
29.06.2020 21:00:00 19,0 12,5 12 7 25 14 S 999,5 48 0,0
29.06.2020 20:00:00 20,1 11,6 14 7 29 16 S 999,6 50 0,0
29.06.2020 19:00:00 20,9 11,8 12 6 29 16 SSE 1000,0 35 0,0
29.06.2020 18:00:00 20,1 12,6 13 7 25 13 SE 1001,5 46 0,0
29.06.2020 17:00:00 18,0 14,9 6 3 13 7 E 1002,9 34 0,0
29.06.2020 16:00:00 16,3 14,3 7 4 16 9 E 1004,3 26 1,6
29.06.2020 15:00:00 17,5 11,5 11 6 27 15 S 1005,3 49 0,0
29.06.2020 14:00:00 17,3 11,8 4 2 - - SE 1005,8 50 0,1
29.06.2020 13:00:00 19,5 6,6 13 7 27 14 S 1006,2 34 0,0
29.06.2020 12:00:00 20,4 6,7 16 9 26 14 SSW 1006,8 47 0,0
29.06.2020 11:00:00 19,5 6,2 13 7 26 14 S 1007,5 47 0,0
29.06.2020 10:00:00 17,7 8,0 9 5 20 11 SE 1008,4 33 0,0
29.06.2020 09:00:00 16,9 9,1 7 4 15 8 SE 1009,3 42 0,0
29.06.2020 08:00:00 16,4 8,4 5 3 10 5 SSE 1010,0 50 0,0
29.06.2020 07:00:00 15,2 8,0 3 2 6 4 S 1010,7 46 0,0
29.06.2020 06:00:00 14,1 8,5 3 1 4 2 ESE 1011,5 44 0,0
29.06.2020 05:00:00 11,8 9,5 0 0 3 2 N 1012,2 49 0,0
29.06.2020 04:00:00 7,3 6,1 0 0 3 2 N 1012,8 44 0,0
29.06.2020 03:00:00 4,1 2,6 0 0 2 1 N 1013,3 49 0,0
29.06.2020 02:00:00 4,2 2,9 0 0 4 2 N 1013,8 48 0,0
29.06.2020 01:00:00 5,7 4,2 3 1 7 4 SE 1013,9 50 0,0
29.06.2020 00:00:00 7,7 5,3 5 3 10 6 SSW 1013,9 50 0,0
28.06.2020 23:00:00 9,0 6,1 3 2 5 3 SSW 1013,8 39 0,0
28.06.2020 22:00:00 12,7 5,4 3 1 12 7 S 1013,8 50 0,0
28.06.2020 21:00:00 18,1 4,6 6 3 16 8 SE 1013,5 43 0,0
28.06.2020 20:00:00 19,5 6,6 3 2 13 7 SW 1013,5 43 0,0
28.06.2020 19:00:00 19,2 3,8 7 4 22 12 S 1013,8 46 0,0
28.06.2020 18:00:00 20,3 4,7 5 3 20 11 ESE 1014,0 37 0,0
28.06.2020 17:00:00 18,0 4,5 5 3 15 8 SSE 1014,5 50 0,0
28.06.2020 16:00:00 19,8 2,6 8 4 18 10 SSE 1014,9 39 0,0
28.06.2020 15:00:00 20,0 4,9 7 4 19 10 SSE 1015,3 50 0,0
28.06.2020 14:00:00 19,3 3,9 5 3 18 10 SSW 1015,9 31 0,0
28.06.2020 13:00:00 18,2 4,4 8 5 17 9 NE 1016,4 50 0,0
28.06.2020 12:00:00 17,7 4,6 6 4 15 8 NE 1017,1 42 0,0
28.06.2020 11:00:00 16,8 4,8 5 3 14 8 NE 1017,5 40 0,0
28.06.2020 10:00:00 16,1 5,7 7 4 20 11 ESE 1018,1 50 0,0
28.06.2020 09:00:00 15,3 4,6 3 2 13 7 NNE 1018,4 47 0,0
28.06.2020 08:00:00 14,4 4,9 4 2 10 5 E 1018,8 23 0,0

tt = Température de l'air
td = dewpoint
ff = Vitesse du vent
fx = gusts
dd = Direction du vent
ppp = reduced air pressure
vv = visibility
rr = Quantités de précipitations

stations d'obs. à proximité